Content
SEND FEEDBACK

Daily
Averages
Monthly
Summary
Canada

SAINT JOHN, NEW BRUNSWICK


Home > North America > Canada > New Brunswick
Elevation: 358 feet     Latitude: 45 19N     Longitude: 065 53W

WEATHER
 
SELECT A DAY
Number of Records: 199,952;   Date Range: 1/1/95 - 9/30/14
 
SHARE

PRINT THIS DATA

[ ← Previous Day ]
WEATHER ALMANAC - JANUARY 31, 2013
[ Next Day → ]
[ °C ]   °F
Weather ElementAverageHighLow
Temperature48 °F53.6 °F (10:00 am)35.6 °F (11:00 pm)
Dewpoint45.4 °F53.6 °F (1:00 pm)23 °F (11:00 pm)
Humidity91.1 %100 % (1:00 am)60 % (10:00 pm)
Barometer29.18 in29.52 in (1:00 am)28.87 in (2:00 pm)
Wind Speed28.5 mph44.9 mph (1:00 pm)
Wind Gust59.8 mph (1:45 pm)
Weather ElementAverage
Visibility4.7 mi
Wind DirectionSSW (205.6 °)

Weather ElementTotal
Precipitation---
Heating Degree Days20.4 (Base 65)
Averaged from 34 records on January 31, 2013
WEATHER CONDITIONS BREAKOUT
WIND DIRECTION BREAKOUT
WEATHER BY HOUR - JANUARY 31, 2013
[ °C ]   °F
Local TimeTemperatureDewpointHumidityBarometerVisibilityWind DirectionWind SpeedGust SpeedPrecipitationEventsConditions
1:00 AM50.0 °F50.0 °F100 %29.52 in0.6 miSSW (210°)26.5 mph36.8 mphRainLight Rain
2:00 AM49.0 °F49.0 °F100 %29.51 in1.0 miSW (220°)21.9 mphRainLight Rain
2:00 AM50.0 °F50.0 °F100 %29.51 in1.0 miSW (220°)19.6 mph34.5 mphRainLight Rain
3:00 AM50.0 °F50.0 °F100 %29.49 in0.8 miSSW (210°)24.2 mph33.4 mphRainLight Rain
4:00 AM50.0 °F50.0 °F100 %29.47 in0.4 miSSW (210°)24.2 mph33.4 mphFog-RainLight Rain
5:00 AM48.2 °F48.2 °F100 %29.43 in0.2 miSSW (210°)23.0 mph29.9 mphFog-RainLight Rain
6:00 AM48.2 °F48.2 °F100 %29.39 in0.2 miSSW (200°)28.8 mph38.0 mphFog-RainLight Rain
6:49 AM50.0 °F50.0 °F100 %29.35 in0.8 miSSW (200°)36.8 mph51.8 mphRainLight Rain
7:00 AM50.0 °F50.0 °F100 %29.34 in1.0 miSouth (190°)33.4 mph46.0 mphRainLight Rain
8:00 AM51.0 °F51.0 °F98 %29.31 in3.0 miSSW (200°)34.5 mphRainLight Rain
8:00 AM51.8 °F50.0 °F94 %29.31 in3.0 miSSW (200°)38.0 mph50.6 mphRainLight Rain
8:51 AM51.8 °F50.0 °F94 %29.26 in8.0 miSSW (200°)39.1 mph50.6 mphRainLight Rain
9:00 AM51.8 °F50.0 °F94 %29.26 in8.0 miSouth (190°)33.4 mph50.6 mphRainLight Rain
9:17 AM51.8 °F51.8 °F100 %29.24 in3.0 miSouth (190°)36.8 mph51.8 mphRainLight Rain
10:00 AM53.6 °F51.8 °F94 %29.20 in5.0 miSouth (190°)42.6 mphRainLight Rain
10:11 AM53.6 °F51.8 °F94 %29.18 in2.0 miSouth (190°)36.8 mph51.8 mphRainRain
11:00 AM51.8 °F51.8 °F100 %29.13 in4.0 miSouth (190°)38.0 mph50.6 mphRainLight Rain
12:00 PM53.6 °F51.8 °F94 %29.03 in3.0 miNorthRainLight Rain
1:00 PM53.6 °F53.6 °F100 %28.95 in3.0 miSouth (190°)44.9 mphRainLight Rain
1:45 PM53.6 °F51.8 °F94 %28.88 in3.0 miSouth (190°)44.9 mph59.8 mphOvercast
2:00 PM53.0 °F51.0 °F91 %28.87 in4.0 miSSW (200°)44.9 mphRainLight Rain
2:00 PM51.8 °F51.8 °F100 %28.87 in4.0 miSSW (200°)44.9 mph58.7 mphOvercast
3:00 PM50.0 °F48.2 °F94 %28.88 in4.0 miSSW (210°)36.8 mph56.4 mphRainLight Rain
3:21 PM48.2 °F46.4 °F93 %28.89 in4.0 miSSW (210°)33.4 mph50.6 mphMostly Cloudy
4:00 PM46.4 °F42.8 °F87 %28.92 in8.0 miSW (220°)31.1 mph44.9 mphMostly Cloudy
5:00 PM42.8 °F39.2 °F87 %28.99 in8.0 miSW (220°)18.4 mph27.6 mphMostly Cloudy
5:28 PM42.8 °F41.0 °F93 %29.02 in8.0 miWSW (240°)10.4 mph19.6 mphRainLight Rain Showers
6:00 PM42.8 °F37.4 °F81 %29.04 in8.0 miWSW (250°)17.3 mphRainLight Rain Showers
7:00 PM41.0 °F37.4 °F87 %29.08 in8.0 miSW (220°)12.7 mph19.6 mphRainLight Rain Showers
8:00 PM39.0 °F31.0 °F65 %29.12 in7.0 miWSW (240°)12.7 mphRainLight Rain Showers
8:00 PM39.2 °F32.0 °F75 %29.11 in8.0 miSW (230°)11.5 mph20.7 mphRainLight Rain Showers
9:00 PM37.4 °F28.4 °F70 %29.13 in10.0 miWSW (240°)12.7 mph23.0 mphOvercast
10:00 PM37.4 °F24.8 °F60 %29.16 in12.0 miWSW (250°)12.7 mph23.0 mphMostly Cloudy
11:00 PM35.6 °F23.0 °F60 %29.18 in15.0 miWest (260°)15.0 mph27.6 mphOvercast
Hourly data recorded from CYSJ, located miles away from Saint John, New Brunswick







STORIES FROM OUR PARTNERS